Showing default

OPS 9328 (IDSCS 15), 2655

Orbit data source: Space-Track

OPS 9328 (IDSCS 15), 2655 is a payload satellite owned by USAF SSD (US) in GEO that was launched on Wed, 18 Jan 1967 UTC via a TITAN IIIC launch vehicle from the Air Force Eastern Test Range (AFETR). Payload-class satellites include a variety of spacecraft equipped with specific instruments for various scientific and technological missions. These include communications satellites like Starlink; space stations such as the ISS; scientific satellites like the Hubble; Earth observation satellites from companies like Planet Labs, Umbra, and HawkEye 360; GPS; miniature CubeSats for education and research; and military/defense satellites.

Not visible in the next 10 days
Identifier
2655, 1967-003H
Orbit
GEO
Country
Flag of USUS
Related business
Manufacturer
Philco-Ford WDL
Mission
Non-operational spacecraft
Bus & Motor
IDCSP, Unknown motor
Mass
45 kg wet, 45 kg dry
Launch date (UTC)
1967-01-18 (59 years ago)
Launch vehicle
TITAN IIIC
Launch site
Air Force Eastern Test Range (AFETR)
Object type
Payload
Rocket body
Debris
Shape & HBR
Unknown
Radar Cross Section
Medium (>0.1 m² and <1 m²)

Expand to show TLE details & history
Last TLE update: 23 hours ago

TLE from 23 hours ago
0 OPS 9328 (IDSCS 15)
1 02655U 67003H   25349.54742075 -.00000074  00000-0  00000-0 0  9993
2 02655   7.7006  49.5546 0070981  34.0290 144.3944  1.07229740137233
Epoch: 2025-12-15T13:08Z
TLE epoch observation values (Epoch: 2025-12-15T13:08:17.152Z)
Latitude
0.13286°
Longitude
-53.05711°
Altitude
34,176.288 km
Speed
3.126 km/s
True Right ascension
15h 13m 50s
True Declination
0° 07' 58"
Sunlit
Object was in daylight at epoch
Visualization orbit readout
Latitude
Unknown
Longitude
Unknown
Altitude
Unknown
Speed
Unknown
Apparent Right ascension
Unknown
Apparent Declination
Unknown
Sunlit
N/A
Visualization observer readout
Local Sidereal Time
10:23:12
Azimuth
Unknown
Elevation
Unknown
Doppler factor
Unknown
Orbital elements
Apogee altitude
34,229.573 km
Perigee altitude
33,657.161 km
Semi-major axis
40,321.504 km
Eccentricity
0.0071
Inclination
7.7006°
RAAN
49.5546°
Arg. of periapsis
34.029°
True anomaly
144.86456°
Mean anomaly
144.3944°
Eccentric anomaly
144.62982°
Mean motion
0.26806 °/min
Orbital period
1,342.96 mins
BSTAR
0
Loading maneuver chart data...
Computing Atmospheric mass density...
Loading historical data...
Loading historical data...
Loading historical data...
Loading historical data...
Loading historical data...
Loading historical data...
Loading historical data...

Documentation

Showing up to 5 results
|